STARLINK-11330, 62011

Orbit data source: Space-Track

STARLINK-11330, 62011 is a payload satellite owned by SpaceX/Seattle (US) in LEO that was launched on Mon, 18 Nov 2024 UTC via an FALCON 9 launch vehicle from the Air Force Western Test Range (AFWTR). Payloads include a variety of satellites, spacecraft, and rockets equipped with specific instruments for various scientific and technological missions. These include communications satellites like Starlink; space stations such as the ISS; scientific satellites like the Hubble; Earth observation satellites from companies like Planet Labs, Umbra, and HawkEye 360; GPS; miniature CubeSats for education and research; and military/defense satellites.

Not visible in the next 10 days
STARLINK-11330 details
Identifier
62011, 2024-213D
Orbit
LEO
Last TLE update13 hours ago
Origin
Flag of USSpaceX/Seattle (US)
ManufacturerSpaceX/Seattle
MissionOperational spacecraft
Bus & MotorSTARLINK V2M, Unknown motor
Mass730 kg wet, ~700 kg dry
Launch date (UTC)
2024-11-18 (2 weeks ago)
Launch vehicle
FALCON 9
Launch site
Air Force Western Test Range (AFWTR)
Object type
Payload
Rocket body
Debris
Shape & HBRUnknown
Radar Cross SectionLarge (>1 m²)

Expand to show TLE details & history

TLE from 13 hours ago
0 STARLINK-11330
1 62011U 24213D   24336.91667824 -.00879224  00000-0 -35072-2 0  9996
2 62011  53.1615 166.7204 0000913  53.4068 357.3341 15.87906091  3137
Epoch: 2024-12-01T22:00Z
Definitive object data (Epoch: 2024-12-01T22:00:00.999Z)
Latitude38.42045°
Longitude161.68507°
Altitude310.795 km
Speed7.727 km/s
True Right ascension13h 31m 44s
True Declination38° 14' 31"
Sunlit
Object was in daylight at TLE epoch
Visualization TLE readout
Latitude-2.73908°
Longitude-55.15607°
Altitude312.702 km
Speed7.721 km/s
Apparent Right ascension21h 57m 35s
Apparent Declination-21° 54' 57"
Sunlit
Object is in daylight
Visualization observer readout
Local Sidereal Time08:25:16
Azimuth305.707° NW
Elevation-63.394°
Doppler factor1
Orbital elements
Apogee altitude309.027 km
Perigee altitude307.806 km
Semi-major axis6,686.554 km
Eccentricity0.0000913
Inclination53.1615°
RAAN166.7204°
Arg. of periapsis53.4068°
True anomaly357.33361°
Mean anomaly357.3341°
Eccentric anomaly357.33386°
Mean motion3.96954 °/min
BSTAR-0.0035072
Orbital period90.69 mins
Loading maneuver chart data...
Loading historical data...
Loading historical data...
Loading historical data...
Loading historical data...
Loading historical data...
Loading historical data...
Loading historical data...

STARLINK-11330 Visibility forecast

Observer location: undefined°, undefined

STARLINK-11330 is not visible in the next 10 days
Span
Click to sort rows by Start time (UTC) header in descending order
Start Az.
Max El. time (UTC)
Max El. Az.
Max El.
End time (UTC)
End Az.
|